Location: Newark
(43.4545°N, 5.8521°W)
Time: 18:08:01
(UTC+00:00)

ISS - Pass Details

Date: 26 November 2019
Orbit: 411 x 421 km, 51.6° (Epoch: 08 December)

Event Time Altitude Azimuth Distance (km) Brightness Sun altitude
Rises 18:58:25 0° 271° (W) 2,354 1.5 -22.7°
Reaches altitude 10° 19:00:43 10° 284° (WNW) 1,495 0.0 -23.1°
Enters shadow 19:02:59 25° 323° (NW) 892 -1.9 -23.6°
